N0MR Weather Reports


time (UTC)temp
C
wind
direction
speed
KPH
gust
KPH
rain 1hr
cm
rain 24hr
cm
rain mn
cm
humidity
%
barometer
mb
20260506030140 1 273 1.6 14.5 0.00 0.00 0.00 63 1012.6
20260506025141 1 273 1.6 14.5 0.00 0.00 0.00 63 1012.6
20260506024140 1 293 3.2 12.9 0.00 0.00 0.00 63 1012.4
20260506023141 1 293 3.2 12.9 0.00 0.00 0.00 63 1012.4
20260506022140 1 288 6.4 9.7 0.00 0.00 0.00 62 1012.3
20260506021142 1 288 6.4 9.7 0.00 0.00 0.00 62 1012.3
20260506020142 1 306 0.0 9.7 0.00 0.00 0.00 62 1012.0
20260506015142 1 306 0.0 9.7 0.00 0.00 0.00 62 1012.0
20260506014142 1 246 1.6 9.7 0.00 0.00 0.00 60 1011.8
20260506013142 1 246 1.6 9.7 0.00 0.00 0.00 60 1011.8
20260506012141 1 319 1.6 12.9 0.00 0.00 0.00 60 1011.5
20260506011141 2 306 1.6 14.5 0.00 0.00 0.00 59 1011.3
20260506010142 2 306 1.6 14.5 0.00 0.00 0.00 59 1011.3
20260506005142 2 16 3.2 8.0 0.00 0.00 0.00 58 1011.3
20260506004140 2 16 3.2 8.0 0.00 0.00 0.00 58 1011.3
20260506003141 2 322 1.6 14.5 0.00 0.00 0.00 56 1011.2
20260506002141 2 322 1.6 14.5 0.00 0.00 0.00 56 1011.2
20260506001141 2 287 8.0 14.5 0.00 0.00 0.00 54 1010.8
20260506000142 2 287 8.0 14.5 0.00 0.00 0.00 54 1010.8
20260505235142 2 274 3.2 12.9 0.00 0.00 0.00 55 1010.8
20260505234142 2 274 3.2 12.9 0.00 0.00 0.00 55 1010.8
20260505233141 3 292 3.2 14.5 0.00 0.00 0.00 54 1010.7
20260505232141 3 292 3.2 14.5 0.00 0.00 0.00 54 1010.7
20260505231141 3 196 1.6 14.5 0.00 0.00 0.00 54 1010.7
20260505230142 3 196 1.6 14.5 0.00 0.00 0.00 54 1010.7
20260505225141 3 241 1.6 14.5 0.00 0.00 0.00 53 1010.5
20260505224142 3 241 1.6 14.5 0.00 0.00 0.00 53 1010.5
20260505221142 3 279 8.0 16.1 0.00 0.00 0.00 55 1010.4
20260505220143 3 279 8.0 16.1 0.00 0.00 0.00 55 1010.4
20260505215141 3 300 3.2 20.9 0.00 0.00 0.00 55 1010.2
20260505214143 3 189 6.4 14.5 0.00 0.00 0.00 54 1010.1
20260505213143 3 189 6.4 14.5 0.00 0.00 0.00 54 1010.1
20260505212142 3 275 1.6 20.9 0.00 0.00 0.00 54 1009.9
20260505211143 3 275 1.6 20.9 0.00 0.00 0.00 54 1009.9
20260505210143 3 320 1.6 16.1 0.00 0.00 0.00 54 1009.9
20260505205142 3 320 1.6 16.1 0.00 0.00 0.00 54 1009.9
20260505204147 3 268 1.6 19.3 0.00 0.00 0.00 53 1009.8
20260505203142 3 268 1.6 19.3 0.00 0.00 0.00 53 1009.8
20260505202143 3 328 4.8 16.1 0.00 0.00 0.00 53 1009.8
20260505201142 3 328 4.8 16.1 0.00 0.00 0.00 53 1009.8
20260505200143 3 217 9.7 14.5 0.00 0.00 0.00 53 1009.8
20260505195143 3 217 9.7 14.5 0.00 0.00 0.00 53 1009.8
20260505194143 2 44 3.2 19.3 0.00 0.00 0.00 53 1009.7
20260505193144 2 44 3.2 19.3 0.00 0.00 0.00 53 1009.7
20260505192144 2 18 9.7 17.7 0.00 0.00 0.00 52 1009.6
20260505191144 2 18 9.7 17.7 0.00 0.00 0.00 52 1009.6
20260505190143 2 5 11.3 19.3 0.00 0.00 0.00 52 1009.6
20260505185143 2 5 11.3 19.3 0.00 0.00 0.00 52 1009.6
20260505184144 2 178 8.0 14.5 0.00 0.00 0.00 54 1009.4
20260505183143 2 311 17.7 16.1 0.00 0.00 0.00 53 1009.3
20260505182143 2 311 17.7 16.1 0.00 0.00 0.00 53 1009.3
20260505181144 1 192 6.4 17.7 0.00 0.00 0.00 58 1009.1
20260505180144 1 192 6.4 17.7 0.00 0.00 0.00 58 1009.1
20260505174144 1 13 0.0 20.9 0.00 0.00 0.00 61 1009.0
20260505173145 1 230 9.7 16.1 0.00 0.00 0.00 64 1008.7
20260505172145 1 230 9.7 16.1 0.00 0.00 0.00 64 1008.7
20260505171145 0 326 12.9 22.5 0.00 0.00 0.00 65 1008.7
20260505170144 0 326 12.9 22.5 0.00 0.00 0.00 65 1008.7
20260505164145 0 280 6.4 16.1 0.00 0.00 0.00 68 1008.6
20260505163143 0 129 1.6 20.9 0.00 0.00 0.00 69 1008.3
20260505162144 0 129 1.6 20.9 0.00 0.00 0.00 69 1008.3
20260505161144 0 58 1.6 17.7 0.00 0.00 0.00 69 1008.0
20260505160145 0 58 1.6 17.7 0.00 0.00 0.00 69 1008.0
20260505153144 -1 210 12.9 29.0 0.00 0.00 0.00 67 1007.9
20260505152144 -1 331 4.8 19.3 0.00 0.00 0.00 67 1007.5
20260505151146 -1 331 4.8 19.3 0.00 0.00 0.00 67 1007.5
20260505150144 -1 35 3.2 19.3 0.00 0.00 0.00 67 1007.2
20260505140146 -1 338 6.4 22.5 0.00 0.00 0.00 63 1006.4
20260505130145 0 243 1.6 22.5 0.00 0.00 0.00 66 1005.8
20260505124145 -1 261 6.4 16.1 0.00 0.00 0.00 70 1005.7
20260505123146 -1 261 6.4 16.1 0.00 0.00 0.00 70 1005.7
20260505122145 -1 11 8.0 14.5 0.00 0.03 0.00 72 1005.5
20260505121145 -1 328 1.6 12.9 0.00 0.05 0.00 73 1005.4
20260505120146 -1 328 1.6 12.9 0.00 0.05 0.00 73 1005.4
20260505115146 -1 299 3.2 22.5 0.00 0.05 0.00 73 1005.1
20260505114146 -1 299 3.2 22.5 0.00 0.05 0.00 73 1005.1
20260505113146 -1 61 3.2 17.7 0.00 0.05 0.00 74 1004.9
20260505112145 -1 61 3.2 17.7 0.00 0.05 0.00 74 1004.9
20260505111146 -1 312 12.9 16.1 0.00 0.05 0.00 75 1004.6
20260505110146 -1 312 12.9 16.1 0.00 0.05 0.00 75 1004.6
20260505102146 -1 355 14.5 20.9 0.00 0.05 0.00 79 1004.2
20260505101146 -1 215 9.7 25.7 0.00 0.05 0.00 79 1004.0
20260505100146 -1 215 9.7 25.7 0.00 0.05 0.00 79 1004.0
20260505095146 -1 307 3.2 19.3 0.00 0.05 0.00 79 1003.8
20260505094147 -1 307 3.2 19.3 0.00 0.05 0.00 79 1003.8
20260505091146 0 192 3.2 20.9 0.00 0.05 0.00 80 1003.4
20260505090146 0 223 9.7 12.9 0.00 0.05 0.00 81 1003.1
20260505085146 0 223 9.7 12.9 0.00 0.05 0.00 81 1003.1
20260505084147 0 266 3.2 16.1 0.00 0.05 0.00 83 1003.1
20260505083146 0 266 3.2 16.1 0.00 0.05 0.00 83 1003.1
20260505082146 -1 106 8.0 11.3 0.00 0.05 0.00 83 1003.0
20260505081146 -1 106 8.0 11.3 0.00 0.05 0.00 83 1003.0
20260505080147 0 348 3.2 12.9 0.00 0.05 0.00 81 1002.9
20260505075147 0 348 3.2 12.9 0.00 0.05 0.00 81 1002.9
20260505074147 0 311 1.6 14.5 0.00 0.05 0.00 80 1002.9
20260505073147 0 311 1.6 14.5 0.00 0.05 0.00 80 1002.9
20260505072147 0 355 1.6 12.9 0.00 0.05 0.00 79 1002.7
20260505071147 0 355 1.6 12.9 0.00 0.05 0.00 79 1002.7
20260505070148 0 328 1.6 12.9 0.00 0.05 0.00 79 1002.7
20260505064148 0 281 1.6 14.5 0.00 0.05 0.00 80 1002.7
20260505063147 0 281 1.6 14.5 0.00 0.05 0.00 80 1002.7
20260505062148 0 300 6.4 9.7 0.00 0.05 0.00 79 1002.7
20260505061148 0 300 6.4 9.7 0.00 0.05 0.00 79 1002.7
20260505060147 0 306 3.2 11.3 0.00 0.05 0.00 79 1002.5
20260505055149 0 306 1.6 8.0 0.00 0.05 0.00 78 1002.4
20260505054148 0 306 1.6 8.0 0.00 0.05 0.00 78 1002.4
20260505053147 0 342 1.6 11.3 0.00 0.05 0.00 78 1002.3
20260505052147 0 342 1.6 11.3 0.00 0.05 0.00 78 1002.3
20260505051148 1 294 1.6 11.3 0.00 0.05 0.05 79 1002.1
20260505050148 1 294 1.6 11.3 0.00 0.05 0.05 79 1002.1
20260505041149 1 290 8.0 11.3 0.00 0.05 0.05 76 1001.7
20260505040149 1 290 8.0 11.3 0.00 0.05 0.05 76 1001.7
20260505035149 1 334 0.0 9.7 0.00 0.05 0.05 75 1001.8
20260505034148 1 334 0.0 9.7 0.00 0.05 0.05 75 1001.8
20260505033149 2 299 1.6 16.1 0.00 0.05 0.05 74 1001.7
20260505032148 2 299 1.6 16.1 0.00 0.05 0.05 74 1001.7
20260505031149 2 300 1.6 11.3 0.00 0.05 0.05 73 1001.4